<?xml version="1.0" encoding="UTF-8" standalone="no" ?>
<gpx xmlns="http://www.topografix.com/GPX/1/1" xmlns:xsi="http://www.w3.org/2001/XMLSchema-instance" xsi:schemaLocation="http://www.topografix.com/GPX/1/1 http://www.topografix.com/GPX/1/1/gpx.xsd" version="1.1" creator="VisuGPX - https://www.visugpx.com">
  <metadata>
    <name>37 Cerelles 10km</name>
    <desc><![CDATA[sans difficulté]]></desc>
  </metadata>
  <trk>
    <name><![CDATA[37 Cerelles 10km]]></name>
    <trkseg>
      <trkpt lat="47.49824" lon="0.68216">
        <ele>91</ele>
        <time>1970-01-01T00:00:00Z</time>
      </trkpt>
      <trkpt lat="47.49754" lon="0.68294">
        <ele>91</ele>
        <time>1970-01-01T00:00:00Z</time>
      </trkpt>
      <trkpt lat="47.4976" lon="0.68332">
        <ele>91</ele>
        <time>1970-01-01T00:00:00Z</time>
      </trkpt>
      <trkpt lat="47.49789" lon="0.68392">
        <ele>94</ele>
        <time>1970-01-01T00:00:00Z</time>
      </trkpt>
      <trkpt lat="47.49815" lon="0.68465">
        <ele>95</ele>
        <time>1970-01-01T00:00:00Z</time>
      </trkpt>
      <trkpt lat="47.49824" lon="0.68564">
        <ele>95</ele>
        <time>1970-01-01T00:00:00Z</time>
      </trkpt>
      <trkpt lat="47.49876" lon="0.68658">
        <ele>94</ele>
        <time>1970-01-01T00:00:00Z</time>
      </trkpt>
      <trkpt lat="47.49911" lon="0.68723">
        <ele>93</ele>
        <time>1970-01-01T00:00:00Z</time>
      </trkpt>
      <trkpt lat="47.49934" lon="0.68847">
        <ele>92</ele>
        <time>1970-01-01T00:00:00Z</time>
      </trkpt>
      <trkpt lat="47.4989" lon="0.68899">
        <ele>91</ele>
        <time>1970-01-01T00:00:00Z</time>
      </trkpt>
      <trkpt lat="47.4987" lon="0.68942">
        <ele>90</ele>
        <time>1970-01-01T00:00:00Z</time>
      </trkpt>
      <trkpt lat="47.49818" lon="0.68959">
        <ele>89</ele>
        <time>1970-01-01T00:00:00Z</time>
      </trkpt>
      <trkpt lat="47.49754" lon="0.6907">
        <ele>88</ele>
        <time>1970-01-01T00:00:00Z</time>
      </trkpt>
      <trkpt lat="47.49664" lon="0.69148">
        <ele>88</ele>
        <time>1970-01-01T00:00:00Z</time>
      </trkpt>
      <trkpt lat="47.49528" lon="0.69293">
        <ele>83</ele>
        <time>1970-01-01T00:00:00Z</time>
      </trkpt>
      <trkpt lat="47.49508" lon="0.69336">
        <ele>81</ele>
        <time>1970-01-01T00:00:00Z</time>
      </trkpt>
      <trkpt lat="47.4949" lon="0.69422">
        <ele>76</ele>
        <time>1970-01-01T00:00:00Z</time>
      </trkpt>
      <trkpt lat="47.49464" lon="0.69512">
        <ele>72</ele>
        <time>1970-01-01T00:00:00Z</time>
      </trkpt>
      <trkpt lat="47.49426" lon="0.6956">
        <ele>71</ele>
        <time>1970-01-01T00:00:00Z</time>
      </trkpt>
      <trkpt lat="47.49455" lon="0.69615">
        <ele>71</ele>
        <time>1970-01-01T00:00:00Z</time>
      </trkpt>
      <trkpt lat="47.49493" lon="0.69697">
        <ele>72</ele>
        <time>1970-01-01T00:00:00Z</time>
      </trkpt>
      <trkpt lat="47.49554" lon="0.69723">
        <ele>73</ele>
        <time>1970-01-01T00:00:00Z</time>
      </trkpt>
      <trkpt lat="47.49592" lon="0.69723">
        <ele>73</ele>
        <time>1970-01-01T00:00:00Z</time>
      </trkpt>
      <trkpt lat="47.49757" lon="0.6971">
        <ele>80</ele>
        <time>1970-01-01T00:00:00Z</time>
      </trkpt>
      <trkpt lat="47.49815" lon="0.69894">
        <ele>87</ele>
        <time>1970-01-01T00:00:00Z</time>
      </trkpt>
      <trkpt lat="47.49954" lon="0.70023">
        <ele>103</ele>
        <time>1970-01-01T00:00:00Z</time>
      </trkpt>
      <trkpt lat="47.50029" lon="0.70147">
        <ele>109</ele>
        <time>1970-01-01T00:00:00Z</time>
      </trkpt>
      <trkpt lat="47.50108" lon="0.70238">
        <ele>112</ele>
        <time>1970-01-01T00:00:00Z</time>
      </trkpt>
      <trkpt lat="47.50157" lon="0.70246">
        <ele>113</ele>
        <time>1970-01-01T00:00:00Z</time>
      </trkpt>
      <trkpt lat="47.50351" lon="0.70332">
        <ele>114</ele>
        <time>1970-01-01T00:00:00Z</time>
      </trkpt>
      <trkpt lat="47.50427" lon="0.70332">
        <ele>113</ele>
        <time>1970-01-01T00:00:00Z</time>
      </trkpt>
      <trkpt lat="47.50566" lon="0.70388">
        <ele>110</ele>
        <time>1970-01-01T00:00:00Z</time>
      </trkpt>
      <trkpt lat="47.50644" lon="0.70487">
        <ele>108</ele>
        <time>1970-01-01T00:00:00Z</time>
      </trkpt>
      <trkpt lat="47.50711" lon="0.70602">
        <ele>100</ele>
        <time>1970-01-01T00:00:00Z</time>
      </trkpt>
      <trkpt lat="47.50754" lon="0.70654">
        <ele>98</ele>
        <time>1970-01-01T00:00:00Z</time>
      </trkpt>
      <trkpt lat="47.50827" lon="0.70697">
        <ele>94</ele>
        <time>1970-01-01T00:00:00Z</time>
      </trkpt>
      <trkpt lat="47.50937" lon="0.70572">
        <ele>97</ele>
        <time>1970-01-01T00:00:00Z</time>
      </trkpt>
      <trkpt lat="47.50986" lon="0.70517">
        <ele>94</ele>
        <time>1970-01-01T00:00:00Z</time>
      </trkpt>
      <trkpt lat="47.51053" lon="0.70495">
        <ele>93</ele>
        <time>1970-01-01T00:00:00Z</time>
      </trkpt>
      <trkpt lat="47.51088" lon="0.70353">
        <ele>96</ele>
        <time>1970-01-01T00:00:00Z</time>
      </trkpt>
      <trkpt lat="47.51137" lon="0.70281">
        <ele>98</ele>
        <time>1970-01-01T00:00:00Z</time>
      </trkpt>
      <trkpt lat="47.5118" lon="0.70255">
        <ele>99</ele>
        <time>1970-01-01T00:00:00Z</time>
      </trkpt>
      <trkpt lat="47.51218" lon="0.70272">
        <ele>99</ele>
        <time>1970-01-01T00:00:00Z</time>
      </trkpt>
      <trkpt lat="47.51247" lon="0.70366">
        <ele>100</ele>
        <time>1970-01-01T00:00:00Z</time>
      </trkpt>
      <trkpt lat="47.51293" lon="0.70332">
        <ele>102</ele>
        <time>1970-01-01T00:00:00Z</time>
      </trkpt>
      <trkpt lat="47.51366" lon="0.70332">
        <ele>107</ele>
        <time>1970-01-01T00:00:00Z</time>
      </trkpt>
      <trkpt lat="47.51415" lon="0.70302">
        <ele>109</ele>
        <time>1970-01-01T00:00:00Z</time>
      </trkpt>
      <trkpt lat="47.51435" lon="0.70238">
        <ele>107</ele>
        <time>1970-01-01T00:00:00Z</time>
      </trkpt>
      <trkpt lat="47.51508" lon="0.70143">
        <ele>104</ele>
        <time>1970-01-01T00:00:00Z</time>
      </trkpt>
      <trkpt lat="47.51589" lon="0.7019">
        <ele>109</ele>
        <time>1970-01-01T00:00:00Z</time>
      </trkpt>
      <trkpt lat="47.51656" lon="0.70165">
        <ele>109</ele>
        <time>1970-01-01T00:00:00Z</time>
      </trkpt>
      <trkpt lat="47.51699" lon="0.70208">
        <ele>111</ele>
        <time>1970-01-01T00:00:00Z</time>
      </trkpt>
      <trkpt lat="47.51719" lon="0.69911">
        <ele>104</ele>
        <time>1970-01-01T00:00:00Z</time>
      </trkpt>
      <trkpt lat="47.51662" lon="0.69551">
        <ele>112</ele>
        <time>1970-01-01T00:00:00Z</time>
      </trkpt>
      <trkpt lat="47.5163" lon="0.69478">
        <ele>113</ele>
        <time>1970-01-01T00:00:00Z</time>
      </trkpt>
      <trkpt lat="47.51754" lon="0.69465">
        <ele>111</ele>
        <time>1970-01-01T00:00:00Z</time>
      </trkpt>
      <trkpt lat="47.51893" lon="0.69315">
        <ele>112</ele>
        <time>1970-01-01T00:00:00Z</time>
      </trkpt>
      <trkpt lat="47.51966" lon="0.69178">
        <ele>114</ele>
        <time>1970-01-01T00:00:00Z</time>
      </trkpt>
      <trkpt lat="47.5198" lon="0.69113">
        <ele>114</ele>
        <time>1970-01-01T00:00:00Z</time>
      </trkpt>
      <trkpt lat="47.52001" lon="0.68804">
        <ele>113</ele>
        <time>1970-01-01T00:00:00Z</time>
      </trkpt>
      <trkpt lat="47.52015" lon="0.68568">
        <ele>109</ele>
        <time>1970-01-01T00:00:00Z</time>
      </trkpt>
      <trkpt lat="47.51934" lon="0.68392">
        <ele>102</ele>
        <time>1970-01-01T00:00:00Z</time>
      </trkpt>
      <trkpt lat="47.51824" lon="0.68371">
        <ele>93</ele>
        <time>1970-01-01T00:00:00Z</time>
      </trkpt>
      <trkpt lat="47.51777" lon="0.68324">
        <ele>88</ele>
        <time>1970-01-01T00:00:00Z</time>
      </trkpt>
      <trkpt lat="47.51722" lon="0.68427">
        <ele>90</ele>
        <time>1970-01-01T00:00:00Z</time>
      </trkpt>
      <trkpt lat="47.51711" lon="0.68512">
        <ele>94</ele>
        <time>1970-01-01T00:00:00Z</time>
      </trkpt>
      <trkpt lat="47.51621" lon="0.68688">
        <ele>95</ele>
        <time>1970-01-01T00:00:00Z</time>
      </trkpt>
      <trkpt lat="47.51447" lon="0.68736">
        <ele>101</ele>
        <time>1970-01-01T00:00:00Z</time>
      </trkpt>
      <trkpt lat="47.51464" lon="0.688">
        <ele>103</ele>
        <time>1970-01-01T00:00:00Z</time>
      </trkpt>
      <trkpt lat="47.51479" lon="0.68967">
        <ele>110</ele>
        <time>1970-01-01T00:00:00Z</time>
      </trkpt>
      <trkpt lat="47.51421" lon="0.68993">
        <ele>111</ele>
        <time>1970-01-01T00:00:00Z</time>
      </trkpt>
      <trkpt lat="47.51369" lon="0.69006">
        <ele>110</ele>
        <time>1970-01-01T00:00:00Z</time>
      </trkpt>
      <trkpt lat="47.51302" lon="0.69032">
        <ele>108</ele>
        <time>1970-01-01T00:00:00Z</time>
      </trkpt>
      <trkpt lat="47.51273" lon="0.69002">
        <ele>106</ele>
        <time>1970-01-01T00:00:00Z</time>
      </trkpt>
      <trkpt lat="47.51256" lon="0.6901">
        <ele>105</ele>
        <time>1970-01-01T00:00:00Z</time>
      </trkpt>
      <trkpt lat="47.51238" lon="0.691">
        <ele>109</ele>
        <time>1970-01-01T00:00:00Z</time>
      </trkpt>
      <trkpt lat="47.51198" lon="0.69268">
        <ele>110</ele>
        <time>1970-01-01T00:00:00Z</time>
      </trkpt>
      <trkpt lat="47.51175" lon="0.69422">
        <ele>106</ele>
        <time>1970-01-01T00:00:00Z</time>
      </trkpt>
      <trkpt lat="47.51157" lon="0.69401">
        <ele>105</ele>
        <time>1970-01-01T00:00:00Z</time>
      </trkpt>
      <trkpt lat="47.51122" lon="0.69392">
        <ele>105</ele>
        <time>1970-01-01T00:00:00Z</time>
      </trkpt>
      <trkpt lat="47.51024" lon="0.69246">
        <ele>110</ele>
        <time>1970-01-01T00:00:00Z</time>
      </trkpt>
      <trkpt lat="47.50992" lon="0.69225">
        <ele>111</ele>
        <time>1970-01-01T00:00:00Z</time>
      </trkpt>
      <trkpt lat="47.50835" lon="0.69139">
        <ele>108</ele>
        <time>1970-01-01T00:00:00Z</time>
      </trkpt>
      <trkpt lat="47.5076" lon="0.69075">
        <ele>98</ele>
        <time>1970-01-01T00:00:00Z</time>
      </trkpt>
      <trkpt lat="47.50711" lon="0.69053">
        <ele>90</ele>
        <time>1970-01-01T00:00:00Z</time>
      </trkpt>
      <trkpt lat="47.50676" lon="0.68993">
        <ele>82</ele>
        <time>1970-01-01T00:00:00Z</time>
      </trkpt>
      <trkpt lat="47.50659" lon="0.68959">
        <ele>79</ele>
        <time>1970-01-01T00:00:00Z</time>
      </trkpt>
      <trkpt lat="47.50635" lon="0.68881">
        <ele>78</ele>
        <time>1970-01-01T00:00:00Z</time>
      </trkpt>
      <trkpt lat="47.5063" lon="0.68809">
        <ele>80</ele>
        <time>1970-01-01T00:00:00Z</time>
      </trkpt>
      <trkpt lat="47.50566" lon="0.68774">
        <ele>83</ele>
        <time>1970-01-01T00:00:00Z</time>
      </trkpt>
      <trkpt lat="47.50488" lon="0.68774">
        <ele>88</ele>
        <time>1970-01-01T00:00:00Z</time>
      </trkpt>
      <trkpt lat="47.50403" lon="0.68821">
        <ele>89</ele>
        <time>1970-01-01T00:00:00Z</time>
      </trkpt>
      <trkpt lat="47.50363" lon="0.68881">
        <ele>86</ele>
        <time>1970-01-01T00:00:00Z</time>
      </trkpt>
      <trkpt lat="47.50328" lon="0.6895">
        <ele>81</ele>
        <time>1970-01-01T00:00:00Z</time>
      </trkpt>
      <trkpt lat="47.50299" lon="0.68886">
        <ele>88</ele>
        <time>1970-01-01T00:00:00Z</time>
      </trkpt>
      <trkpt lat="47.50241" lon="0.68851">
        <ele>88</ele>
        <time>1970-01-01T00:00:00Z</time>
      </trkpt>
      <trkpt lat="47.50189" lon="0.68813">
        <ele>91</ele>
        <time>1970-01-01T00:00:00Z</time>
      </trkpt>
      <trkpt lat="47.50143" lon="0.68748">
        <ele>96</ele>
        <time>1970-01-01T00:00:00Z</time>
      </trkpt>
      <trkpt lat="47.49986" lon="0.68821">
        <ele>92</ele>
        <time>1970-01-01T00:00:00Z</time>
      </trkpt>
      <trkpt lat="47.49957" lon="0.6883">
        <ele>92</ele>
        <time>1970-01-01T00:00:00Z</time>
      </trkpt>
    </trkseg>
  </trk>
</gpx>